Weather History for Asheville, NC

Change the Weather History Date:

Friday, January 4, 2013

  Actual Average Record
Temperature  
Mean Temperature 35 °F 37 °F  
Max Temperature 42 °F 47 °F 71 °F (2005)
Min Temperature 27 °F 27 °F -1 °F (1879)
Degree Days  
Heating Degree Days 30 28  
Month to date heating degree days 108 112  
Since 1 July heating degree days 1665 1773  
Cooling Degree Days 0 0  
Month to date cooling degree days 0 0  
Year to date cooling degree days 0 0  
Moisture  
Dew Point 20 °F    
Average Humidity 56    
Maximum Humidity 78    
Minimum Humidity 34    
Precipitation  
Precipitation 0.00 in 0.11 in 1.04 in (1993)
Month to date precipitation 0.32 0.43  
Year to date precipitation 0.32 0.43  
Snow  
Snow 0.00 in 0.10 in 4.00 in (1878)
Month to date snowfall 0.0 0.4  
Since 1 July snowfall T 1.4  
Snow Depth 0.00 in    
Sea Level Pressure  
Sea Level Pressure 30.32 in    
Wind  
Wind Speed 12 mph (NNW)    
Max Wind Speed 22 mph    
Max Gust Speed 30 mph    
Visibility 10 miles    
Events      
T = Trace of Precipitation, MM = Missing Value Source: NWS Daily Summary

Daily Weather History Graph

Daily Weather History Graph

Search for Another Location

Airport:

Trip Planner

Search our weather history database for the weather conditions in past years. The results will help you decide how hot, cold, wet, or windy it might be!

Date:

Astronomy

Jan. 04, 2013 Rise Set
Actual Time 7:39 AM EST 5:31 PM EST
Civil Twilight 7:11 AM EST 5:59 PM EST
Nautical Twilight 6:39 AM EST 6:30 PM EST
Astronomical Twilight 6:09 AM EST 7:01 PM EST
Moon No Moon Rise 11:38 AM EST (1/4)
Length of Visible Light 10h 47m
Length of Day
9h 51m
Waning Gibbous, 55% of the Moon is Illuminated
Jan 4
Waning Gibbous
Jan 4
Last Quarter
Jan 11
New
Jan 18
First Quarter
Jan 26
Full

Hourly Weather History & Observations

Time (EST) Temp. Windchill Dew Point Humidity Pressure Visibility Wind Dir Wind Speed Gust Speed Precip Events Conditions
12:54 AM 30.0 °F 24.1 °F 25.0 °F 82% 30.30 in 10.0 mi North 5.8 mph - N/A   Clear
1:54 AM 30.0 °F 24.1 °F 24.1 °F 79% 30.29 in 10.0 mi North 5.8 mph - N/A   Clear
2:54 AM 28.9 °F 20.4 °F 23.0 °F 78% 30.31 in 10.0 mi North 9.2 mph - N/A   Clear
3:54 AM 28.0 °F 18.1 °F 21.9 °F 78% 30.30 in 10.0 mi NNW 11.5 mph - N/A   Clear
4:54 AM 28.0 °F 17.5 °F 21.0 °F 75% 30.29 in 10.0 mi NNW 12.7 mph - N/A   Clear
5:54 AM 28.0 °F 17.0 °F 21.0 °F 75% 30.30 in 10.0 mi NNW 13.8 mph - N/A   Clear
6:54 AM 28.0 °F 19.3 °F 21.0 °F 75% 30.32 in 10.0 mi NNW 9.2 mph - N/A   Clear
7:54 AM 28.4 °F 18.5 °F 21.2 °F 74% 30.29 in 10.0 mi North 11.5 mph - N/A   Clear
8:54 AM 30.0 °F 18.7 °F 21.0 °F 69% 30.35 in 10.0 mi NNW 16.1 mph - N/A   Clear
9:54 AM 32.0 °F 21.6 °F 21.0 °F 64% 30.35 in 10.0 mi NNW 15.0 mph 23.0 mph N/A   Clear
10:54 AM 34.0 °F 25.0 °F 21.9 °F 61% 30.35 in 10.0 mi NNW 12.7 mph - N/A   Clear
11:54 AM 37.0 °F 27.4 °F 21.9 °F 54% 30.33 in 10.0 mi NNW 17.3 mph - N/A   Clear
12:54 PM 39.9 °F 32.1 °F 19.0 °F 43% 30.29 in 10.0 mi North 13.8 mph 25.3 mph N/A   Clear
1:54 PM 41.0 °F 33.1 °F 16.0 °F 36% 30.26 in 10.0 mi North 15.0 mph 21.9 mph N/A   Clear
2:54 PM 42.1 °F 33.6 °F 17.1 °F 37% 30.25 in 10.0 mi NNW 18.4 mph 23.0 mph N/A   Clear
3:54 PM 41.0 °F 33.5 °F 18.0 °F 40% 30.27 in 10.0 mi NNW 13.8 mph 23.0 mph N/A   Clear
4:54 PM 37.9 °F 29.6 °F 19.0 °F 47% 30.29 in 10.0 mi North 13.8 mph 25.3 mph N/A   Clear
5:54 PM 35.1 °F 26.9 °F 19.0 °F 52% 30.32 in 10.0 mi North 11.5 mph - N/A   Clear
6:54 PM 34.0 °F 25.5 °F 19.0 °F 54% 30.35 in 10.0 mi North 11.5 mph - N/A   Clear
7:54 PM 33.1 °F 24.9 °F 21.0 °F 61% 30.35 in 10.0 mi North 10.4 mph - N/A   Clear
8:54 PM 30.9 °F 22.8 °F 21.0 °F 67% 30.36 in 10.0 mi NNW 9.2 mph - N/A   Clear
9:54 PM 30.0 °F 22.4 °F 19.9 °F 66% 30.37 in 10.0 mi NNW 8.1 mph - N/A   Clear
10:54 PM 28.0 °F 20.8 °F 19.0 °F 69% 30.37 in 10.0 mi NNW 6.9 mph - N/A   Clear
11:54 PM 30.0 °F 20.0 °F 19.0 °F 64% 30.38 in 10.0 mi NNW 12.7 mph 16.1 mph N/A   Clear